When you browse on this site, cookies collect data to enhance your experience and personalize the content and advertising you see.
Visit our Privacy Policy to learn more. By continuing to use the site, you agree to this use of cookies and data.
  • în România
  • Lista ţărilor
  • Pe 7 zile
  • Temperatura apei
  • Hartă satelitară
  • Meteo pe hartă
  • Widget-uri
  • user-avatar
    Intrare

    Meteo pe oră la Lago d'Arno

    Astăzi, 22 Aprilie, Luni

    Timp Temperatura Precipitaţii Vânt Presiune Umiditate
    00:00 +2°C° 0 mm 1 m/s 606 mmHg 84%
    01:00 +2°C° 0 mm 1 m/s 605 mmHg 87%
    02:00 +2°C° 0 mm 1 m/s 605 mmHg 87%
    03:00 +2°C° 0 mm 1 m/s 605 mmHg 88%
    04:00 +2°C° 0 mm 1 m/s 605 mmHg 89%
    05:00 +3°C° 0 mm 1 m/s 605 mmHg 86%
    06:00 +3°C° 0 mm 1 m/s 605 mmHg 84%
    07:00 +4°C° 0 mm 0 m/s 605 mmHg 80%
    08:00 +5°C° 0 mm 0 m/s 605 mmHg 70%
    09:00 +8°C° 0 mm 1 m/s 605 mmHg 61%
    10:00 +9°C° 0 mm 1 m/s 605 mmHg 51%
    11:00 +10°C° 0 mm 1 m/s 605 mmHg 50%
    12:00 +9°C° 0 mm 2 m/s 605 mmHg 48%
    13:00 +9°C° 0 mm 2 m/s 605 mmHg 49%
    14:00 +9°C° 0 mm 2 m/s 604 mmHg 51%
    15:00 +9°C° 0 mm 2 m/s 604 mmHg 54%
    16:00 +9°C° 0 mm 2 m/s 603 mmHg 56%
    17:00 +7°C° 0 mm 2 m/s 603 mmHg 64%
    18:00 +7°C° 0 mm 1 m/s 602 mmHg 71%
    19:00 +5°C° 0 mm 1 m/s 601 mmHg 79%
    20:00 +5°C° 0 mm 1 m/s 601 mmHg 83%
    21:00 +4°C° 0 mm 1 m/s 601 mmHg 87%
    22:00 +4°C° 0 mm 1 m/s 601 mmHg 91%
    23:00 +4°C° 0.2 mm 1 m/s 600 mmHg 92%

    Mâine, 23 Aprilie, Marţi

    Timp Temperatura Precipitaţii Vânt Presiune Umiditate
    00:00 +4°C° 0.2 mm 1 m/s 600 mmHg 93%
    01:00 +3°C° 0.2 mm 1 m/s 599 mmHg 93%
    02:00 +3°C° 0.4 mm 1 m/s 599 mmHg 92%
    03:00 +3°C° 0.4 mm 1 m/s 598 mmHg 91%
    04:00 +2°C° 0.4 mm 2 m/s 598 mmHg 90%
    05:00 +2°C° 0.6 mm 2 m/s 598 mmHg 90%
    06:00 +3°C° 0.6 mm 1 m/s 597 mmHg 90%
    07:00 +3°C° 0.6 mm 1 m/s 597 mmHg 90%
    08:00 +3°C° 1 mm 1 m/s 597 mmHg 89%
    09:00 +4°C° 1 mm 1 m/s 597 mmHg 89%
    10:00 +4°C° 1 mm 1 m/s 597 mmHg 88%
    11:00 +4°C° 1.2 mm 1 m/s 598 mmHg 88%
    12:00 +4°C° 1.2 mm 1 m/s 598 mmHg 88%
    13:00 +4°C° 1.2 mm 1 m/s 598 mmHg 88%
    14:00 +5°C° 0.6 mm 1 m/s 598 mmHg 88%
    15:00 +5°C° 0.6 mm 1 m/s 598 mmHg 88%
    16:00 +5°C° 0.6 mm 1 m/s 598 mmHg 88%
    17:00 +5°C° 0.8 mm 1 m/s 598 mmHg 90%
    18:00 +4°C° 0.8 mm 1 m/s 598 mmHg 93%
    19:00 +4°C° 0.8 mm 1 m/s 598 mmHg 96%
    20:00 +4°C° 0.6 mm 1 m/s 598 mmHg 96%
    21:00 +3°C° 0.6 mm 1 m/s 598 mmHg 96%
    22:00 +3°C° 0.6 mm 1 m/s 599 mmHg 96%
    23:00 +3°C° 0.8 mm 1 m/s 599 mmHg 96%

    Poimâine, 24 Aprilie, Miercuri

    Timp Temperatura Precipitaţii Vânt Presiune Umiditate
    00:00 +3°C° 0.8 mm 1 m/s 599 mmHg 96%
    01:00 +3°C° 0.8 mm 1 m/s 600 mmHg 97%
    02:00 +3°C° 0.9 mm 1 m/s 600 mmHg 97%
    03:00 +3°C° 0.9 mm 1 m/s 600 mmHg 97%
    04:00 +3°C° 0.9 mm 1 m/s 600 mmHg 97%
    05:00 +3°C° 0.3 mm 1 m/s 601 mmHg 97%
    06:00 +3°C° 0.3 mm 2 m/s 601 mmHg 97%
    07:00 +3°C° 0.3 mm 2 m/s 601 mmHg 96%
    08:00 +4°C° 0.4 mm 2 m/s 602 mmHg 93%
    09:00 +4°C° 0.4 mm 2 m/s 603 mmHg 90%
    10:00 +5°C° 0.4 mm 2 m/s 603 mmHg 87%
    11:00 +5°C° 0.8 mm 2 m/s 603 mmHg 88%
    12:00 +5°C° 0.8 mm 2 m/s 603 mmHg 89%
    13:00 +5°C° 0.8 mm 2 m/s 603 mmHg 91%
    14:00 +5°C° 2.3 mm 2 m/s 603 mmHg 92%
    15:00 +4°C° 2.3 mm 2 m/s 603 mmHg 93%
    16:00 +5°C° 2.3 mm 1 m/s 603 mmHg 94%
    17:00 +4°C° 3.3 mm 2 m/s 603 mmHg 95%
    18:00 +3°C° 3.3 mm 2 m/s 603 mmHg 96%
    19:00 +3°C° 3.3 mm 2 m/s 603 mmHg 97%
    20:00 +3°C° 1.4 mm 2 m/s 604 mmHg 97%
    21:00 +3°C° 1.4 mm 2 m/s 605 mmHg 97%
    22:00 +4°C° 1.4 mm 1 m/s 605 mmHg 97%
    23:00 +4°C° 0.2 mm 1 m/s 605 mmHg 97%

    25 Aprilie, Joi

    Timp Temperatura Precipitaţii Vânt Presiune Umiditate
    00:00 +3°C° 0.2 mm 1 m/s 605 mmHg 96%
    01:00 +3°C° 0.2 mm 1 m/s 605 mmHg 96%
    02:00 +3°C° 0.1 mm 1 m/s 605 mmHg 96%
    03:00 +3°C° 0.1 mm 1 m/s 605 mmHg 96%
    04:00 +3°C° 0.1 mm 1 m/s 605 mmHg 95%
    05:00 +3°C° 0.4 mm 1 m/s 605 mmHg 94%
    06:00 +3°C° 0.4 mm 1 m/s 606 mmHg 93%
    07:00 +2°C° 0.4 mm 0 m/s 606 mmHg 92%
    08:00 +5°C° 0.3 mm 1 m/s 606 mmHg 89%
    09:00 +6°C° 0.3 mm 1 m/s 607 mmHg 87%
    10:00 +6°C° 0.3 mm 2 m/s 607 mmHg 84%
    11:00 +7°C° 0.5 mm 2 m/s 607 mmHg 84%
    12:00 +7°C° 0.5 mm 3 m/s 608 mmHg 84%
    13:00 +7°C° 0.5 mm 3 m/s 608 mmHg 84%
    14:00 +7°C° 0.6 mm 3 m/s 607 mmHg 85%
    15:00 +7°C° 0.6 mm 3 m/s 607 mmHg 87%
    16:00 +7°C° 0.6 mm 3 m/s 607 mmHg 88%
    17:00 +6°C° 0.5 mm 2 m/s 606 mmHg 91%
    18:00 +6°C° 0.5 mm 2 m/s 606 mmHg 93%
    19:00 +6°C° 0.5 mm 1 m/s 606 mmHg 96%
    20:00 +6°C° 0.6 mm 1 m/s 606 mmHg 96%
    21:00 +5°C° 0.6 mm 1 m/s 606 mmHg 97%
    22:00 +5°C° 0.6 mm 1 m/s 606 mmHg 98%
    23:00 +5°C° 0.4 mm 1 m/s 606 mmHg 98%

    26 Aprilie, Vineri

    Timp Temperatura Precipitaţii Vânt Presiune Umiditate
    00:00 +4°C° 0.4 mm 1 m/s 605 mmHg 97%
    01:00 +4°C° 0.4 mm 1 m/s 605 mmHg 97%
    02:00 +4°C° 0.2 mm 1 m/s 605 mmHg 97%
    03:00 +4°C° 0.2 mm 1 m/s 604 mmHg 96%
    04:00 +4°C° 0.2 mm 1 m/s 604 mmHg 96%
    05:00 +4°C° 0.1 mm 1 m/s 604 mmHg 95%
    06:00 +5°C° 0.1 mm 1 m/s 604 mmHg 93%
    07:00 +5°C° 0.1 mm 1 m/s 604 mmHg 92%
    08:00 +5°C° 0.5 mm 2 m/s 604 mmHg 91%
    09:00 +5°C° 0.5 mm 2 m/s 605 mmHg 91%
    10:00 +4°C° 0.5 mm 3 m/s 605 mmHg 90%
    11:00 +4°C° 1.2 mm 3 m/s 605 mmHg 91%
    12:00 +4°C° 1.2 mm 3 m/s 605 mmHg 92%
    13:00 +4°C° 1.2 mm 2 m/s 605 mmHg 92%
    14:00 +4°C° 0.6 mm 2 m/s 605 mmHg 91%
    15:00 +5°C° 0.6 mm 2 m/s 605 mmHg 89%
    16:00 +4°C° 0.6 mm 3 m/s 605 mmHg 88%
    17:00 +4°C° 0.9 mm 2 m/s 605 mmHg 90%
    18:00 +3°C° 0.9 mm 2 m/s 605 mmHg 91%
    19:00 +2°C° 0.9 mm 2 m/s 605 mmHg 93%
    20:00 +1°C° 1 mm 2 m/s 605 mmHg 90%
    21:00 -1°C° 1 mm 3 m/s 605 mmHg 87%
    22:00 -1°C° 1 mm 3 m/s 605 mmHg 84%
    23:00 -2°C° 0 mm 3 m/s 605 mmHg 83%

    27 Aprilie, Sâmbătă

    Timp Temperatura Precipitaţii Vânt Presiune Umiditate
    00:00 -4°C° 0 mm 3 m/s 605 mmHg 82%
    01:00 -4°C° 0 mm 3 m/s 605 mmHg 82%
    02:00 -5°C° 0 mm 3 m/s 605 mmHg 81%
    03:00 -5°C° 0 mm 3 m/s 605 mmHg 80%
    04:00 -5°C° 0 mm 3 m/s 605 mmHg 79%
    05:00 -4°C° 0 mm 3 m/s 605 mmHg 76%
    06:00 -2°C° 0 mm 3 m/s 606 mmHg 73%
    07:00 -1°C° 0 mm 2 m/s 607 mmHg 70%
    08:00 +3°C° 0 mm 2 m/s 608 mmHg 63%
    09:00 +6°C° 0 mm 1 m/s 609 mmHg 57%
    10:00 +8°C° 0 mm 1 m/s 610 mmHg 50%
    11:00 +8°C° 0 mm 1 m/s 609 mmHg 51%
    12:00 +7°C° 0 mm 2 m/s 609 mmHg 52%
    13:00 +8°C° 0 mm 2 m/s 609 mmHg 53%
    14:00 +7°C° 0.1 mm 2 m/s 609 mmHg 56%
    15:00 +7°C° 0.1 mm 2 m/s 608 mmHg 60%
    16:00 +6°C° 0.1 mm 2 m/s 608 mmHg 63%
    17:00 +6°C° 0.1 mm 1 m/s 607 mmHg 69%
    18:00 +5°C° 0.1 mm 1 m/s 607 mmHg 75%
    19:00 +4°C° 0.1 mm 1 m/s 606 mmHg 81%
    20:00 +3°C° 0.1 mm 1 m/s 606 mmHg 83%
    21:00 +3°C° 0.1 mm 1 m/s 606 mmHg 85%
    22:00 +2°C° 0.1 mm 1 m/s 606 mmHg 87%
    23:00 +2°C° 0.2 mm 1 m/s 606 mmHg 87%
    Arată mai mult